Volver al catálogo

FENGYUN 1C DEB

ActivoSSO
NORAD 30648·DEBRIS·🇨🇳 China

Lanzado May 10, 1999 desde Taiyuan Satellite Launch Center

Loading…

Próximos Pases (próximas 24 horas)

TLE

ActualizadoSource: Space-Track

Época: Sep 14, 2026, 13:25 UTC

1 30648U 99025APF 26257.55926547  .00004132  00000-0  10327-2 0  9996
2 30648  98.6440   4.2757 0030567  11.7950   1.1728 14.51801609 18657

Sigue FENGYUN 1C DEB en tiempo real con AllMySat

Download on the App Store